[[{"header":{"parameterUnit":"m.s-1","parameterCategory":1,"la1":30.2991,"la2":30.254,"lo1":-89.0895,"lo2":-89.0444,"dy":0.0017,"dx":0.0017,"nx":28,"ny":28,"refTime":"2024-10-15T03:00:00:Z","depth":0,"parameterNumber":2,"parameterNumberName":"U-component_of_WINDS"},"data":[0,0,0,0,0,0,0,0,0,0,0,0,0,0,0,0,0,0,0,0,0,0,0,0,0,0,0,0,0,0,0,0,0,0,0,0,0,0,0,0,0,0,0,0,0,0,0,0,0,0,0,0,0,0,0,0,0,0,-3.6286,-3.6287,0,-3.6333,-3.6333,-3.6334,-3.6266,-3.6264,-3.6261,-3.6259,-3.6304,-3.6307,-3.631,0,0,0,0,0,0,0,0,0,0,0,0,0,-3.6136,-3.6139,-3.6286,-3.6287,-3.6287,-3.6333,-3.6333,-3.6334,-3.6267,-3.6264,-3.6261,-3.6258,-3.6302,-3.6306,-3.6311,0,0,0,0,0,0,0,0,0,0,0,0,0,-3.6194,-3.614,-3.6286,-3.6259,-3.6257,-3.6333,-3.6333,-3.6334,-3.6267,-3.6264,-3.626,-3.6257,-3.6301,-3.6306,-3.6311,-3.6414,0,0,-3.6327,-3.6329,0,0,0,0,0,0,0,0,-3.6191,-3.6199,-3.6263,-3.6261,-3.6259,-3.629,-3.6297,-3.6361,-3.6268,-3.6263,-3.6259,-3.6255,-3.6302,-3.6307,-3.6323,-3.6416,-3.6418,-3.6327,-3.633,-3.6332,-3.6334,0,0,0,0,0,0,0,-3.6187,-3.6197,-3.6304,-3.6264,-3.6262,-3.6244,-3.6248,-3.6308,-3.6302,-3.6264,-3.6259,-3.6265,-3.63,-3.6318,-3.6324,-3.6418,-3.6327,-3.6331,-3.6335,-3.6337,-3.6598,-3.6601,0,0,0,0,0,0,-3.6186,-3.6194,-3.6303,-3.6306,-3.6216,-3.625,-3.6254,-3.6284,-3.6301,-3.63,-3.6268,-3.6262,-3.6311,-3.6318,-3.6325,-3.6445,-3.6332,-3.6337,-3.634,-3.6594,-3.6598,-3.6603,0,0,0,0,0,0,-3.6183,-3.6197,-3.6301,-3.6249,-3.6261,-3.6256,-3.629,-3.6287,-3.6305,-3.6305,-3.6303,-3.6288,-3.6309,-3.6318,-3.6392,-3.6446,-3.6339,-3.6344,-3.6589,-3.6595,-3.6601,-3.6687,0,0,0,0,0,0,-3.6179,-3.6196,-3.6235,-3.625,-3.6264,-3.6369,-3.6293,-3.629,-3.6314,-3.6306,-3.6323,-3.6322,-3.6307,-3.6385,-3.6397,-3.6451,-3.6348,-3.6584,-3.6592,-3.6599,-3.6679,-3.6695,-3.6709,0,0,0,0,0,-3.6174,-3.6257,-3.6238,-3.6251,-3.6313,-3.6372,-3.6379,-3.6361,-3.6319,-3.6357,-3.6358,-3.6322,-3.6439,-3.6393,-3.6407,-3.6462,-3.6581,-3.659,-3.6598,-3.6673,-3.6692,-3.6708,0,0,0,0,0,0,-3.6246,-3.6258,-3.6237,-3.6327,-3.6349,-3.636,-3.6408,-3.6382,-3.6415,-3.6406,-3.6381,-3.6385,-3.6465,-3.6472,-3.6421,-3.6563,-3.6503,-3.6514,-3.6555,-3.6573,-3.6587,-3.6582,-3.6352,0,0,0,0,0,-3.6273,-3.6321,-3.6329,-3.6407,-3.642,-3.6413,-3.6438,-3.6422,-3.6443,-3.6451,-3.6457,-3.6478,-3.652,-3.6547,-3.6585,-3.6681,-3.6683,-3.6726,-3.6741,-3.6753,-3.6762,-3.6813,-3.6831,-3.6631,-3.6631,-3.6631,0,0,-3.6328,-3.6341,-3.6372,-3.6422,-3.6437,-3.6486,-3.6421,-3.6475,-3.6511,-3.6459,-3.653,-3.6536,-3.6557,-3.6643,-3.6681,-3.6651,-3.6819,-3.6764,-3.6774,-3.6776,-3.6823,-3.6842,-3.6859,-3.6637,-3.6636,-3.6635,0,0,-3.6452,-3.6468,-3.6535,-3.6552,-3.6577,-3.6572,-3.6589,-3.6605,-3.6606,-3.6678,-3.664,-3.6682,-3.6754,-3.6771,-3.6789,-3.6924,-3.6891,-3.6938,-3.7012,-3.7062,-3.7077,-3.7091,-3.7137,-3.7154,-3.6948,-3.6948,-3.6948,0,-3.6516,-3.659,-3.6572,-3.663,-3.6652,-3.6611,-3.6678,-3.6696,-3.6731,-3.6747,-3.6714,-3.6804,-3.6816,-3.6905,-3.6938,-3.6955,-3.6971,-3.6933,-3.7077,-3.7091,-3.7103,-3.7146,-3.7164,-3.6953,-3.6952,-3.6952,-3.6951,0,-3.6667,-3.6718,-3.677,-3.6807,-3.6836,-3.6898,-3.6889,-3.6921,-3.6904,-3.6902,-3.6975,-3.6989,-3.7029,-3.705,-3.7033,-3.7136,-3.7117,-3.7081,-3.7019,-3.7128,-3.7168,-3.7184,-3.6961,-3.6959,-3.6957,-3.6956,0,0,-3.6833,-3.6862,-3.6881,-3.6897,-3.6923,-3.6962,-3.7023,-3.7064,-3.7091,-3.7118,-3.7167,-3.7231,-3.7198,-3.7219,-3.7204,-3.7248,-3.7352,-3.7207,-3.7207,-3.7231,-3.7465,-3.7489,-3.7508,-3.7332,-3.7335,-3.7338,-3.7462,0,-3.6955,-3.706,-3.7048,-3.7148,-3.7195,-3.7158,-3.7211,-3.7232,-3.7234,-3.7273,-3.7275,-3.7319,-3.7274,-3.7286,-3.7329,-3.733,-3.7398,-3.7322,-3.7375,-3.7377,-3.7367,-3.753,-3.7555,-3.7671,-3.7478,-3.748,-3.7482,0,-3.711,-3.7145,-3.725,-3.727,-3.7289,-3.7337,-3.7374,-3.7413,-3.7436,-3.7434,-3.746,-3.7438,-3.7498,-3.7439,-3.752,-3.7469,-3.7491,-3.7496,-3.75,-3.75,-3.7433,-3.7532,-3.7708,-3.7724,-3.7507,-3.7505,-3.7504,0,-3.7218,-3.7291,-3.7363,-3.7379,-3.7404,-3.7439,-3.7451,-3.7471,-3.7497,-3.753,-3.7546,-3.7585,-3.7605,-3.7636,-3.7625,-3.7583,-3.7708,-3.7649,-3.7706,-3.7707,-3.773,-3.7728,-3.7909,-3.7751,-3.7751,-3.7751,-3.775,0,-3.7353,-3.7418,-3.7412,-3.7456,-3.7528,-3.7514,-3.7586,-3.7593,-3.7612,-3.7657,-3.7628,-3.767,-3.7655,-3.7696,-3.7688,-3.7756,-3.7767,-3.7765,-3.7761,-3.7766,-3.7765,-3.7776,-3.7767,-3.7755,-3.7754,-3.7753,-3.7752,0,-3.7483,-3.7482,-3.7558,-3.7577,-3.7584,-3.7636,-3.7652,-3.7693,-3.7694,-3.7751,-3.7763,-3.7764,-3.7811,-3.7804,-3.7857,-3.7851,-3.7935,-3.7924,-3.7927,-3.7923,-3.798,-3.7974,-3.8171,-3.8195,-3.8025,-3.8027,-3.8028,0,-3.7567,-3.7617,-3.7643,-3.7671,-3.7686,-3.7732,-3.7759,-3.7748,-3.7777,-3.781,-3.7847,-3.7892,-3.7926,-3.8004,-3.8008,-3.8048,-3.8035,-3.8102,-3.804,-3.8043,-3.8032,-3.8028,-3.8032,-3.8112,-3.8114,-3.8115,-3.8117,0,-3.7716,-3.7714,-3.7754,-3.7796,-3.7829,-3.7861,-3.7889,-3.7914,-3.7906,-3.794,-3.7988,-3.8016,-3.8071,-3.8115,-3.8153,-3.8164,-3.8139,-3.8137,-3.8152,-3.8154,-3.8153,-3.8152,-3.7956,-3.8131,-3.813,-3.8129,-3.8128,-3.8127,-3.7823,-3.7866,-3.7891,-3.7937,-3.7959,-3.7987,-3.8026,-3.8034,-3.8075,-3.8118,-3.811,-3.8165,-3.8188,-3.8237,-3.8253,-3.8295,-3.827,-3.8292,-3.8297,-3.8302,-3.8307,-3.8151,-3.8302,-3.8302,-3.8301,-3.8301,-3.8301,0,-3.7968,-3.7984,-3.8027,-3.8069,-3.8105,-3.8082,-3.8113,-3.8145,-3.8193,-3.8219,-3.8255,-3.8311,-3.8355,-3.8364,-3.8406,-3.8438,-3.8427,-3.8448,-3.8444,-3.8446,-3.8328,-3.831,-3.8456,-3.8456,-3.8456,-3.8456,-3.8456,-3.8456,-3.8047,-3.8117,-3.8119,-3.82,-3.8214,-3.8269,-3.8288,-3.8314,-3.8334,-3.8398,-3.8435,-3.8442,-3.8461,-3.8504,-3.8543,-3.8545,-3.856,-3.8585,-3.8582,-3.8471,-3.8455,-3.844,-3.8422,-3.859,-3.859,-3.8696,-3.8697,-3.8698]},{"header":{"parameterUnit":"m.s-1","parameterCategory":1,"la1":30.2991,"la2":30.254,"lo1":-89.0895,"lo2":-89.0444,"dy":0.0017,"dx":0.0017,"nx":28,"ny":28,"refTime":"2024-10-15T03:00:00:Z","depth":0,"parameterNumber":3,"parameterNumberName":"V-component_of_WINDS"},"data":[0,0,0,0,0,0,0,0,0,0,0,0,0,0,0,0,0,0,0,0,0,0,0,0,0,0,0,0,0,0,0,0,0,0,0,0,0,0,0,0,0,0,0,0,0,0,0,0,0,0,0,0,0,0,0,0,0,0,0.8456,0.8456,0,0.8458,0.8458,0.8458,0.8458,0.8458,0.8458,0.8458,0.8457,0.8457,0.8457,0,0,0,0,0,0,0,0,0,0,0,0,0,0.8448,0.8448,0.8456,0.8456,0.8456,0.8458,0.8458,0.8458,0.8458,0.8458,0.8458,0.8458,0.8457,0.8457,0.8457,0,0,0,0,0,0,0,0,0,0,0,0,0,0.8451,0.8448,0.8456,0.8456,0.8456,0.8458,0.8458,0.8458,0.8458,0.8458,0.8458,0.8458,0.8457,0.8457,0.8457,0.8458,0,0,0.8457,0.8457,0,0,0,0,0,0,0,0,0.8451,0.8451,0.8456,0.8456,0.8456,0.8458,0.8455,0.8458,0.8458,0.8457,0.8458,0.8458,0.8457,0.8457,0.8458,0.8458,0.8458,0.8457,0.8457,0.8457,0.8457,0,0,0,0,0,0,0,0.845,0.8451,0.8457,0.8456,0.8456,0.8455,0.8456,0.8456,0.8457,0.8457,0.8457,0.8458,0.8457,0.8458,0.8458,0.8458,0.8457,0.8457,0.8457,0.8457,0.8461,0.8461,0,0,0,0,0,0,0.8451,0.8451,0.8456,0.8457,0.8453,0.8455,0.8456,0.8457,0.8457,0.8457,0.8458,0.8458,0.8458,0.8458,0.8457,0.846,0.8457,0.8457,0.8457,0.8461,0.8461,0.8461,0,0,0,0,0,0,0.845,0.8451,0.8456,0.8454,0.8454,0.8456,0.8457,0.8457,0.8458,0.8458,0.8458,0.8458,0.8458,0.8457,0.8459,0.846,0.8457,0.8457,0.8461,0.8461,0.8461,0.8464,0,0,0,0,0,0,0.845,0.8451,0.8452,0.8454,0.8455,0.8458,0.8457,0.8457,0.8458,0.8458,0.8458,0.8458,0.8457,0.8459,0.8459,0.846,0.8457,0.846,0.8461,0.8461,0.8464,0.8464,0.8464,0,0,0,0,0,0.845,0.8451,0.8452,0.8453,0.8456,0.8458,0.8458,0.8459,0.8458,0.8459,0.8459,0.8458,0.846,0.8459,0.8459,0.846,0.846,0.8461,0.8461,0.8463,0.8464,0.8464,0,0,0,0,0,0,0.8447,0.8451,0.8452,0.8454,0.8456,0.8458,0.8459,0.8459,0.846,0.846,0.8459,0.8459,0.846,0.846,0.8459,0.8462,0.846,0.846,0.8462,0.8462,0.8463,0.8463,0.8457,0,0,0,0,0,0.8447,0.845,0.8453,0.8455,0.8456,0.8457,0.8458,0.8459,0.846,0.846,0.846,0.8461,0.8462,0.8462,0.8462,0.8464,0.8464,0.8464,0.8465,0.8465,0.8465,0.8467,0.8468,0.8462,0.8462,0.8462,0,0,0.8447,0.8449,0.8451,0.8454,0.8456,0.8458,0.8458,0.8459,0.8461,0.846,0.8462,0.8462,0.8462,0.8464,0.8465,0.8464,0.8467,0.8466,0.8466,0.8466,0.8468,0.8468,0.8469,0.8462,0.8462,0.8462,0,0,0.8447,0.8449,0.8452,0.8454,0.8457,0.8458,0.8459,0.8461,0.8462,0.8464,0.8464,0.8465,0.8466,0.8467,0.8467,0.847,0.8469,0.847,0.8472,0.8474,0.8475,0.8475,0.8477,0.8478,0.8471,0.8471,0.8471,0,0.8446,0.845,0.8452,0.8455,0.8457,0.8459,0.8461,0.8462,0.8465,0.8466,0.8465,0.8468,0.8468,0.847,0.8471,0.8471,0.8472,0.847,0.8475,0.8475,0.8476,0.8477,0.8478,0.8471,0.8471,0.8471,0.8471,0,0.8449,0.8452,0.8453,0.8458,0.846,0.8462,0.8465,0.8466,0.8467,0.8468,0.8471,0.8472,0.8473,0.8474,0.8473,0.8476,0.8476,0.8475,0.8473,0.8476,0.8478,0.8479,0.8471,0.8471,0.8471,0.8471,0,0,0.8446,0.8454,0.8454,0.8457,0.8462,0.8464,0.8466,0.847,0.8471,0.8473,0.8475,0.8477,0.8477,0.8478,0.8478,0.848,0.8483,0.8479,0.8479,0.848,0.8488,0.8489,0.8489,0.8483,0.8483,0.8483,0.8488,0,0.8447,0.8454,0.8457,0.8462,0.8465,0.8468,0.847,0.8473,0.8474,0.8477,0.8478,0.848,0.8479,0.848,0.8482,0.8482,0.8485,0.8482,0.8485,0.8485,0.8485,0.849,0.8491,0.8495,0.8488,0.8489,0.8489,0,0.8449,0.8454,0.846,0.8466,0.8467,0.8469,0.8474,0.8476,0.8479,0.848,0.8482,0.8483,0.8486,0.8484,0.8488,0.8486,0.8488,0.8488,0.8488,0.8489,0.8487,0.8491,0.8497,0.8498,0.849,0.8489,0.8489,0,0.8448,0.8455,0.846,0.8462,0.8469,0.8471,0.8473,0.8477,0.8479,0.8482,0.8484,0.8487,0.8488,0.849,0.8491,0.849,0.8495,0.8494,0.8496,0.8496,0.8497,0.8497,0.8503,0.8497,0.8497,0.8497,0.8497,0,0.8449,0.8453,0.846,0.8463,0.8467,0.8471,0.8475,0.8477,0.8481,0.8484,0.8485,0.8488,0.849,0.8492,0.8493,0.8497,0.8497,0.8498,0.8498,0.8498,0.8498,0.8499,0.8499,0.8498,0.8498,0.8498,0.8497,0,0.8448,0.8453,0.8459,0.8466,0.8468,0.847,0.8476,0.8479,0.8481,0.8485,0.8486,0.849,0.8494,0.8495,0.8499,0.85,0.8504,0.8504,0.8504,0.8504,0.8507,0.8507,0.8514,0.8516,0.8508,0.8508,0.8508,0,0.8449,0.8452,0.846,0.8463,0.8467,0.8471,0.8475,0.8478,0.8481,0.8487,0.8489,0.8493,0.8497,0.8502,0.8505,0.8508,0.8508,0.8511,0.8508,0.8509,0.8509,0.8509,0.851,0.8511,0.8511,0.8511,0.8511,0,0.8449,0.8452,0.8458,0.8465,0.8469,0.8474,0.8478,0.8481,0.8485,0.8488,0.8493,0.8496,0.8502,0.8506,0.851,0.8512,0.8512,0.8512,0.8513,0.8513,0.8513,0.8514,0.8505,0.8511,0.8511,0.8511,0.8511,0.8511,0.8449,0.8453,0.846,0.8467,0.8471,0.8476,0.848,0.8484,0.8489,0.8495,0.8496,0.8502,0.8506,0.8512,0.8514,0.8518,0.8517,0.8518,0.8518,0.8519,0.8519,0.8512,0.8518,0.8518,0.8518,0.8518,0.8518,0,0.8451,0.8456,0.8462,0.847,0.8475,0.8478,0.8483,0.8487,0.8492,0.8497,0.8502,0.8508,0.8512,0.8516,0.8521,0.8523,0.8523,0.8524,0.8524,0.8525,0.8519,0.8518,0.8524,0.8524,0.8524,0.8524,0.8524,0.8524,0.8452,0.846,0.8464,0.8473,0.8478,0.8485,0.8488,0.8493,0.8497,0.8504,0.8509,0.8512,0.8516,0.8522,0.8526,0.8527,0.8529,0.853,0.8531,0.8525,0.8525,0.8524,0.8523,0.853,0.853,0.8536,0.8536,0.8536]}]]